C/2017 F2 ( PanSTARRS )

Japanese version
Home page
Updated on June 2, 2017

---------------------------------------------------------------------

* Profile

Discovery Date March 31, 2017
Magnitude 21.2 mag
Discoverer Pan-STARRS 1 telescope (Haleakala)

* Orbital Elements

Epoch 2017 Nov. 23.0 TT = JDT 2458080.5
T 2017 Nov. 21.45064 TT                                 MPCW
q   6.9304009            (2000.0)            P               Q
z  +0.0001600      Peri.  134.48038     -0.87579014     -0.23333620
 +/-0.0000983      Node    38.72856     -0.21726587     -0.59114345
e   0.9988909      Incl.   42.48463     +0.43103036     -0.77207748
From 33 observations 2017 Mar. 31-May 26, mean residual 0".5.

* Magnitudes Graph

        m1 = 7.5 + 5 log d + 10.0 log r

---------------------------------------------------------------------

The orbital elements are published on M.P.E.C. 2017-K89.
The magnitudes graphs are made with Comet for Windows.

---------------------------------------------------------------------

Copyright(C) Seiichi Yoshida (comet@aerith.net). All rights reserved.